Content
SEND FEEDBACK

Daily
Averages
Monthly
Summary
Philippines

QUEZON CITY, PHILIPPINES


Home > Asia > Philippines
Elevation: 46 meters     Latitude: 14 39N     Longitude: 121 03E

WEATHER
 
SELECT A DAY
Number of Records: 177,139;   Date Range: 7/1/96 - 10/24/14
 
SHARE

PRINT THIS DATA

[ ← Previous Day ]
WEATHER ALMANAC - 28 FEBRUARY, 2013
[ Next Day → ]
[ °F ]   °C
Weather ElementAverageHighLow
Temperature28.4 °C33 °C (2:00 pm)25 °C (6:00 am)
Dewpoint21.8 °C23 °C (9:00 pm)21 °C (9:00 am)
Humidity66.7 %83 % (6:00 am)42 % (2:00 pm)
Barometer1010.8 hPa1012.5 hPa (8:00 am)1002 hPa (2:00 pm)
Wind Speed13.2 km/h18.5 km/h (4:00 pm)
Weather ElementAverage
Visibility9.8 km
Wind DirectionESE (121 °)

Weather ElementTotal
Precipitation---
Cooling Degree Days10.7 (Base 18.3)
Growing Degree Days19 (Base 10)
Averaged from 30 records on 28 February, 2013
WEATHER CONDITIONS BREAKOUT
WIND DIRECTION BREAKOUT
WEATHER BY HOUR - 28 FEBRUARY, 2013
[ °F ]   °C
Local TimeTemperatureDewpointHumidityBarometerVisibilityWind DirectionWind SpeedGust SpeedPrecipitationEventsConditions
1:00 AM26 °C22 °C78 %1011.2 hPa10 kmESE (110°)11.1 km/hPartly Cloudy
2:00 AM26.1 °C22.2 °C73 %1011.2 hPa9.7 kmSE (130°)10.8 km/hHaze
2:00 AM26 °C22 °C78 %1011.2 hPa10 kmSE (130°)11.1 km/hScattered Clouds
3:00 AM26 °C22 °C78 %1010.2 hPa10 kmESE (110°)11.1 km/hPartly Cloudy
4:00 AM26 °C22 °C78 %1010.2 hPa10 kmESE (110°)9.3 km/hMostly Cloudy
5:00 AM25.6 °C22.2 °C78 %1010.8 hPa9.7 kmESE (110°)7.2 km/hHaze
5:00 AM26 °C22 °C78 %1010.2 hPa10 kmESE (110°)7.4 km/hPartly Cloudy
6:00 AM25 °C22 °C83 %1011.2 hPa10 kmEast (100°)7.4 km/hPartly Cloudy
7:00 AM26 °C22 °C78 %1012.2 hPa10 kmEast (100°)7.4 km/hPartly Cloudy
8:00 AM27.2 °C21.7 °C64 %1012.5 hPa9.7 kmEast (100°)10.8 km/hPartly Cloudy
8:00 AM27 °C22 °C74 %1012.2 hPa10 kmEast (100°)11.1 km/hPartly Cloudy
9:00 AM28 °C21 °C66 %1012.2 hPa10 kmEast (100°)16.7 km/hPartly Cloudy
10:00 AM30 °C21 °C58 %1012.2 hPa10 kmESE (110°)13 km/hPartly Cloudy
11:00 AM30.6 °C21.1 °C49 %1012.5 hPa9.7 kmESE (110°)14.3 km/hScattered Clouds
11:00 AM30 °C21 °C58 %1012.2 hPa10 kmESE (110°)14.8 km/hPartly Cloudy
12:00 PM31 °C21 °C55 %1011.2 hPa10 kmESE (120°)16.7 km/hPartly Cloudy
1:00 PM32 °C22 °C55 %1010.2 hPa10 kmSSE (150°)14.8 km/hPartly Cloudy
2:00 PM32.8 °C21.7 °C42 %1002 hPa9.7 kmSSE (150°)14.3 km/hScattered Clouds
2:00 PM33 °C22 °C52 %1010.2 hPa10 kmSSE (150°)14.8 km/hPartly Cloudy
3:00 PM33 °C22 °C52 %1009.1 hPa10 kmSSE (150°)14.8 km/hPartly Cloudy
4:00 PM32 °C22 °C55 %1009.1 hPa10 kmSE (140°)18.5 km/hPartly Cloudy
5:00 PM31 °C22 °C58 %1009.1 hPa10 kmSE (140°)18.5 km/hPartly Cloudy
6:00 PM30 °C22 °C62 %1009.1 hPa10 kmSE (140°)14.8 km/hPartly Cloudy
7:00 PM28 °C22 °C70 %1010.2 hPa10 kmSE (140°)18.5 km/hPartly Cloudy
8:00 PM27.8 °C22.2 °C66 %1010.8 hPa9.7 kmSE (130°)14.3 km/hClear
8:00 PM28 °C22 °C70 %1010.2 hPaSE (130°)14.8 km/hClear
9:00 PM27 °C23 °C79 %1011.2 hPaESE (120°)11.1 km/hClear
10:00 PM27 °C21 °C70 %1012.2 hPaESE (110°)18.5 km/hClear
11:00 PM26.7 °C21.7 °C69 %1012.5 hPa9.7 kmESE (110°)14.3 km/hClear
11:00 PM27 °C22 °C74 %1012.2 hPaESE (110°)13 km/hClear
Hourly data recorded from RPLL, located 0 kilometers away from Quezon City, Philippines







STORIES FROM OUR PARTNERS